CW8593 Gava ES current weather conditions

sailwx.info

Wind from 236 at 5 knots gusting 9

Air temperature 14.4° C
Dewpoint 5.2° C

Last reported at 2020-Jan-18 14:03 UTC.
Time now 2020-Jan-18 14:41 UTC

Location: N 41°18' E 001°60'.
View on Google Maps.

See reports from other nearby stations

  
Tides and Currents Weather Stations Pressure Air Temp Water Temp Dewpoint Dewpoint Depression Visibility Wind Speed Wind Dir Waves Ship Positions
date/time (UTC)wind fromknots sea level pressurealtimeterstation pressurevisibilityair tempwater tempwave heightnotes
2020-Jan-18 14:03 236 5 gusting 9 14.4
2020-Jan-18 13:54 202 4 gusting 10 13.9
2020-Jan-18 13:45 248 3 gusting 9 15.0
2020-Jan-18 13:36 254 3 gusting 10 15.0
2020-Jan-18 13:27 207 2 gusting 10 14.4
2020-Jan-18 13:18 154 4 gusting 8 13.9
2020-Jan-18 13:09 176 4 gusting 9 13.3
2020-Jan-18 13:00 165 2 gusting 9 13.3
2020-Jan-18 12:51 185 3 gusting 8 13.3
2020-Jan-18 12:42 162 2 gusting 11 12.8
2020-Jan-18 12:33 224 3 gusting 6 13.3
2020-Jan-18 12:24 200 2 gusting 6 13.3
2020-Jan-18 12:15 172 2 gusting 6 13.3
2020-Jan-18 12:06 151 2 gusting 6 13.3
2020-Jan-18 11:57 127 1 gusting 7 13.3
2020-Jan-18 11:48 137 1 gusting 5 13.3
2020-Jan-18 11:39 127 1 gusting 4 13.3
2020-Jan-18 11:30 125 2 gusting 6 13.3
2020-Jan-18 11:21 115 3 gusting 6 13.3
2020-Jan-18 11:12 100 2 gusting 7 12.8
2020-Jan-18 11:03 070 2 gusting 5 12.2
2020-Jan-18 10:54 100 2 gusting 7 12.2
2020-Jan-18 10:45 093 1 gusting 6 11.7
2020-Jan-18 10:36 077 11.7
2020-Jan-18 10:27 045 11.7
2020-Jan-18 10:18 044 0 gusting 2 11.1
2020-Jan-18 10:09 043 1 gusting 3 11.1
2020-Jan-18 10:00 014 2 gusting 4 11.1
2020-Jan-18 09:51 355 0 gusting 4 10.6
2020-Jan-18 09:42 355 10.6
2020-Jan-18 09:33 355 0 gusting 1 10.6
2020-Jan-18 09:24 356 1 gusting 4 10.6
2020-Jan-18 09:15 013 2 gusting 6 10.6
2020-Jan-18 09:06 076 2 gusting 5 10.6
2020-Jan-18 08:57 088 1 gusting 6 10.0
2020-Jan-18 08:48 317 1 gusting 4 10.0
2020-Jan-18 08:39 321 3 gusting 5 10.6
2020-Jan-18 08:30 357 2 gusting 6 10.6
2020-Jan-18 08:21 334 3 gusting 5 10.6
2020-Jan-18 08:12 315 5 gusting 11 10.6
2020-Jan-18 08:03 306 5 gusting 9 10.6
2020-Jan-18 07:54 311 5 gusting 9 10.0
2020-Jan-18 07:45 310 5 gusting 8 10.0
2020-Jan-18 07:36 313 5 gusting 9 10.0
2020-Jan-18 07:27 315 3 gusting 8 10.0
2020-Jan-18 07:18 309 5 gusting 9 10.0
2020-Jan-18 07:09 296 5 gusting 9 10.0
2020-Jan-18 07:00 304 4 gusting 8 10.0
2020-Jan-18 06:51 337 5 gusting 11 10.0
2020-Jan-18 06:42 321 4 gusting 9 10.0
2020-Jan-18 06:33 345 3 gusting 6 10.0
2020-Jan-18 06:24 335 3 gusting 8 10.0
2020-Jan-18 06:15 307 4 gusting 7 10.0
2020-Jan-18 06:06 330 3 gusting 9 10.0
2020-Jan-18 05:57 342 4 gusting 7 10.0
2020-Jan-18 05:48 313 6 gusting 11 10.0
2020-Jan-18 05:39 299 4 gusting 11 10.0
2020-Jan-18 05:30 319 4 gusting 6 10.0
2020-Jan-18 05:21 310 5 gusting 8 10.0
2020-Jan-18 05:12 306 5 gusting 8 10.0
2020-Jan-18 05:03 308 5 gusting 9 10.0
2020-Jan-18 04:54 303 5 gusting 8 10.0
2020-Jan-18 04:45 302 5 gusting 8 9.4
2020-Jan-18 04:36 304 4 gusting 10 9.4
2020-Jan-18 04:27 300 2 gusting 8 9.4
2020-Jan-18 04:18 259 2 gusting 5 9.4
2020-Jan-18 04:09 193 1 gusting 3 8.3
2020-Jan-18 04:00 248 1 gusting 4 8.9
2020-Jan-18 03:51 276 0 gusting 3 9.4
2020-Jan-18 03:42 276 0 gusting 1 9.4
2020-Jan-18 03:33 276 2 gusting 3 10.0
2020-Jan-18 03:24 267 1 gusting 4 9.4
2020-Jan-18 03:15 279 0 gusting 4 8.3
2020-Jan-18 03:06 343 0 gusting 2 9.4
2020-Jan-18 02:57 342 0 gusting 2 9.4
2020-Jan-18 02:48 342 1 gusting 2 9.4
2020-Jan-18 02:39 325 4 gusting 8 10.0
2020-Jan-18 02:30 310 6 gusting 8 9.4
2020-Jan-18 02:21 307 5 gusting 12 9.4
2020-Jan-18 02:12 325 0 gusting 7 9.4
2020-Jan-18 02:03 316 1 gusting 3 8.3
2020-Jan-18 01:54 318 1 gusting 5 8.3
2020-Jan-18 01:45 343 0 gusting 2 8.3
2020-Jan-18 01:36 342 2 gusting 4 8.3
2020-Jan-18 01:27 340 2 gusting 5 9.4
2020-Jan-18 01:18 332 0 gusting 5 8.9
2020-Jan-18 01:09 329 0 gusting 1 8.3
2020-Jan-18 01:00 016 1 gusting 5 9.4
2020-Jan-18 00:51 026 2 gusting 5 8.9
2020-Jan-18 00:42 334 3 gusting 6 10.0
2020-Jan-18 00:33 340 3 gusting 6 10.0
2020-Jan-18 00:24 338 3 gusting 6 10.0
2020-Jan-18 00:15 324 4 gusting 7 10.0
2020-Jan-18 00:06 007 2 gusting 6 9.4
2020-Jan-17 23:57 024 2 gusting 3 9.4
2020-Jan-17 23:48 353 2 gusting 7 10.6
2020-Jan-17 23:39 341 0 gusting 3 10.0
2020-Jan-17 23:30 341 1 gusting 3 10.6
2020-Jan-17 23:21 340 2 gusting 5 10.6
2020-Jan-17 23:12 330 1 gusting 5 10.6
2020-Jan-17 23:03 325 2 gusting 6 10.6
2020-Jan-17 22:54 010 2 gusting 6 10.6
2020-Jan-17 22:45 034 1 gusting 3 10.6
2020-Jan-17 22:36 336 1 gusting 3 11.1
2020-Jan-17 22:27 312 4 gusting 7 11.7
2020-Jan-17 22:18 315 5 gusting 13 11.7
2020-Jan-17 22:09 293 2 gusting 6 12.2
2020-Jan-17 22:00 122 0 gusting 4 11.7
2020-Jan-17 21:51 098 2 gusting 2 11.7
2020-Jan-17 21:42 112 5 gusting 10 11.1
2020-Jan-17 21:33 191 5 gusting 12 12.8
2020-Jan-17 21:24 281 7 gusting 12 13.3
2020-Jan-17 21:15 283 7 gusting 13 13.3
2020-Jan-17 21:06 279 6 gusting 12 13.3
2020-Jan-17 20:57 276 3 gusting 9 12.8
2020-Jan-17 20:48 281 1 gusting 5 12.8
2020-Jan-17 20:39 286 1 gusting 4 13.3
2020-Jan-17 20:30 273 2 gusting 6 13.9
2020-Jan-17 20:21 281 4 gusting 9 13.9
2020-Jan-17 20:12 291 4 gusting 7 13.9
2020-Jan-17 20:03 305 5 gusting 9 13.3
2020-Jan-17 19:54 313 5 gusting 10 13.9
2020-Jan-17 19:45 334 2 gusting 7 13.9
2020-Jan-17 19:36 042 0 gusting 5 13.9
2020-Jan-17 19:27 080 0 gusting 2 14.4
2020-Jan-17 19:18 080 1 gusting 2 14.4
2020-Jan-17 19:09 073 0 gusting 4 14.4
2020-Jan-17 19:00 285 0 gusting 5 14.4
2020-Jan-17 18:51 285 0 gusting 3 14.4
2020-Jan-17 18:42 281 4 gusting 12 15.0
2020-Jan-17 18:33 287 4 gusting 12 15.0
2020-Jan-17 18:24 284 6 gusting 13 15.0
2020-Jan-17 18:14 287 6 gusting 16 15.0
2020-Jan-17 18:06 286 5 gusting 18 15.6
2020-Jan-17 17:57 283 5 gusting 12 15.0
2020-Jan-17 17:47 284 6 gusting 12 15.0
2020-Jan-17 17:39 275 6 gusting 13 15.6
2020-Jan-17 17:30 283 8 gusting 13 15.6
2020-Jan-17 17:21 290 10 gusting 21 15.6
2020-Jan-17 17:11 287 11 gusting 24 15.6
2020-Jan-17 17:02 283 12 gusting 21 15.6
2020-Jan-17 16:53 281 8 gusting 24 15.6
2020-Jan-17 16:45 287 6 gusting 13 15.6
2020-Jan-17 16:35 261 4 gusting 13 15.6
2020-Jan-17 16:26 270 5 gusting 14 15.6
2020-Jan-17 16:17 258 5 gusting 12 15.6
2020-Jan-17 16:08 263 5 gusting 13 16.1
2020-Jan-17 15:59 259 6 gusting 16 16.1
2020-Jan-17 15:50 268 6 gusting 17 16.7
2020-Jan-17 15:41 284 7 gusting 13 16.7
2020-Jan-17 15:33 281 7 gusting 17 16.7
2020-Jan-17 15:23 280 6 gusting 17 16.7
2020-Jan-17 15:14 271 6 gusting 17 16.7
2020-Jan-17 15:05 284 6 gusting 15 16.7
2020-Jan-17 14:56 292 5 gusting 15 16.7
2020-Jan-17 14:47 284 6 gusting 13 17.2
2020-Jan-17 14:38 290 4 gusting 13 17.2
2020-Jan-17 14:29 281 6 gusting 13 17.2
2020-Jan-17 14:20 287 8 gusting 15 17.2
2020-Jan-17 14:12 293 9 gusting 15 17.2
2020-Jan-17 14:02 295 8 gusting 18 16.7
2020-Jan-17 13:53 292 6 gusting 15 17.2
2020-Jan-17 13:44 294 3 gusting 12 17.8
2020-Jan-17 13:35 313 6 gusting 10 17.8
2020-Jan-17 13:26 302 8 gusting 15 17.8
2020-Jan-17 13:17 292 8 gusting 18 17.8
2020-Jan-17 13:08 296 6 gusting 14 17.8
2020-Jan-17 12:59 292 4 gusting 13 18.3
2020-Jan-17 12:50 285 4 gusting 8 18.3
2020-Jan-17 12:41 306 5 gusting 11 17.8
2020-Jan-17 12:33 296 1 gusting 12 17.8
2020-Jan-17 12:23 273 4 gusting 6 18.3
2020-Jan-17 12:14 297 4 gusting 14 17.2
2020-Jan-17 12:05 289 3 gusting 6 17.8
2020-Jan-17 11:56 261 5 gusting 10 17.2
2020-Jan-17 11:47 276 5 gusting 12 16.7
2020-Jan-17 11:38 289 4 gusting 13 17.2
2020-Jan-17 11:20 278 6 gusting 12 16.7
2020-Jan-17 11:11 284 6 gusting 14 16.7
2020-Jan-17 11:02 288 5 gusting 13 16.7
2020-Jan-17 10:53 277 5 gusting 12 16.7
2020-Jan-17 10:45 265 6 gusting 11 16.7
2020-Jan-17 10:35 263 6 gusting 17 16.1
2020-Jan-17 10:26 256 6 gusting 14 16.1
2020-Jan-17 10:17 263 7 gusting 13 16.1
2020-Jan-17 10:08 267 6 gusting 13 16.1
2020-Jan-17 09:59 278 1 gusting 13 15.6
2020-Jan-17 09:50 126 0 gusting 6 13.3
2020-Jan-17 09:41 095 0 gusting 4 12.8
2020-Jan-17 09:32 095 0 gusting 2 12.2
2020-Jan-17 09:23 095 1 gusting 4 11.7
2020-Jan-17 09:05 084 1 gusting 4 11.7
2020-Jan-17 08:57 089 1 gusting 6 11.7
2020-Jan-17 08:47 093 1 gusting 6 11.7
2020-Jan-17 08:38 090 1 gusting 4 11.1
2020-Jan-17 08:29 082 1 gusting 6 11.1
2020-Jan-17 08:20 040 0 gusting 4 10.6
2020-Jan-17 08:11 030 0 gusting 3 10.0
2020-Jan-17 08:02 031 10.0
2020-Jan-17 07:53 030 0 gusting 1 9.4
2020-Jan-17 07:44 030 1 gusting 3 9.4
2020-Jan-17 07:35 030 0 gusting 4 9.4
2020-Jan-17 07:26 030 0 gusting 3 8.9
2020-Jan-17 07:17 029 1 gusting 4 8.9
2020-Jan-17 07:08 023 2 gusting 5 8.9
2020-Jan-17 06:59 118 0 gusting 5 8.9
2020-Jan-17 06:50 208 0 gusting 2 9.4
2020-Jan-17 06:41 207 0 gusting 3 9.4
2020-Jan-17 06:32 207 0 gusting 3 9.4
2020-Jan-17 06:23 207 0 gusting 2 8.9
2020-Jan-17 06:14 166 8.9
2020-Jan-17 06:05 125 8.9
2020-Jan-17 05:56 124 0 gusting 1 9.4
2020-Jan-17 05:47 125 0 gusting 3 8.9
2020-Jan-17 05:38 125 0 gusting 3 9.4
2020-Jan-17 05:29 125 0 gusting 3 9.4
2020-Jan-17 05:20 125 9.4
2020-Jan-17 05:11 125 0 gusting 3 9.4
2020-Jan-17 05:03 125 1 gusting 3 9.4
2020-Jan-17 04:53 125 0 gusting 3 9.4
2020-Jan-17 04:44 125 1 gusting 3 9.4
2020-Jan-17 04:35 130 0 gusting 3 9.4
2020-Jan-17 04:26 137 9.4
2020-Jan-17 04:17 144 0 gusting 2 9.4
2020-Jan-17 04:08 201 0 gusting 3 9.4
2020-Jan-17 03:59 209 0 gusting 2 9.4
2020-Jan-17 03:50 222 0 gusting 5 9.4
2020-Jan-17 03:41 237 0 gusting 2 10.0
2020-Jan-17 03:32 236 0 gusting 1 10.0
2020-Jan-17 03:23 237 0 gusting 3 9.4
2020-Jan-17 03:14 236 0 gusting 2 9.4
2020-Jan-17 03:05 237 9.4
2020-Jan-17 02:56 10.0
2020-Jan-17 02:47 237 0 gusting 2 10.0
2020-Jan-17 02:38 237 0 gusting 3 10.6
2020-Jan-17 02:29 237 10.0
2020-Jan-17 02:20 237 0 gusting 2 10.0
2020-Jan-17 02:11 237 10.6
2020-Jan-17 02:02 237 10.6
2020-Jan-17 01:53 236 0 gusting 1 10.6
2020-Jan-17 01:44 236 0 gusting 2 10.6
2020-Jan-17 01:35 236 0 gusting 1 11.1
2020-Jan-17 01:26 237 0 gusting 3 11.1
2020-Jan-17 01:17 237 0 gusting 2 11.1
2020-Jan-17 01:08 236 10.6
2020-Jan-17 00:59 236 0 gusting 2 11.1
2020-Jan-17 00:50 236 11.1
2020-Jan-17 00:41 237 10.6
2020-Jan-17 00:32 237 11.1
2020-Jan-17 00:23 11.1
2020-Jan-17 00:14 11.1
2020-Jan-17 00:05 236 11.1
2020-Jan-16 23:56 236 10.6
2020-Jan-16 23:47 237 10.6
2020-Jan-16 23:38 236 10.6
2020-Jan-16 23:29 10.6
2020-Jan-16 23:20 237 10.6
2020-Jan-16 23:11 10.6
2020-Jan-16 23:02 10.6
2020-Jan-16 22:53 10.6
2020-Jan-16 22:44 10.6
2020-Jan-16 22:35 11.1
2020-Jan-16 22:26 237 11.1
2020-Jan-16 22:17 236 0 gusting 2 11.1
2020-Jan-16 22:08 237 11.1
2020-Jan-16 21:59 10.6
2020-Jan-16 21:50 237 0 gusting 1 10.6
2020-Jan-16 21:41 237 11.1
2020-Jan-16 21:32 11.1
2020-Jan-16 21:23 237 11.1
2020-Jan-16 21:14 11.1
2020-Jan-16 21:05 10.6
2020-Jan-16 20:56 10.6
2020-Jan-16 20:47 11.1
2020-Jan-16 20:38 11.1
2020-Jan-16 20:29 11.1
2020-Jan-16 20:20 237 11.7
2020-Jan-16 20:11 11.7
2020-Jan-16 20:02 11.7
2020-Jan-16 19:53 237 11.7
2020-Jan-16 19:44 11.7
2020-Jan-16 19:35 237 0 gusting 3 11.7
2020-Jan-16 19:26 236 0 gusting 3 11.7
2020-Jan-16 19:17 236 0 gusting 4 11.7
2020-Jan-16 19:09 235 11.1
2020-Jan-16 18:59 235 11.1
2020-Jan-16 18:50 235 0 gusting 2 11.1
2020-Jan-16 18:32 235 10.6
2020-Jan-16 18:23 10.6
2020-Jan-16 18:14 234 11.1
2020-Jan-16 18:05 235 11.1
2020-Jan-16 17:56 234 11.7
2020-Jan-16 17:47 234 0 gusting 2 11.7
2020-Jan-16 17:38 209 2 gusting 6 12.2
2020-Jan-16 17:29 209 2 gusting 7 12.2
2020-Jan-16 17:20 224 1 gusting 6 12.2
2020-Jan-16 17:11 213 2 gusting 6 12.2
2020-Jan-16 17:02 210 2 gusting 7 12.2
2020-Jan-16 16:53 207 3 gusting 6 12.2
2020-Jan-16 16:44 207 3 gusting 6 12.2
2020-Jan-16 16:35 206 3 gusting 7 12.8
2020-Jan-16 16:26 194 3 gusting 8 12.8
2020-Jan-16 16:17 199 3 gusting 7 13.3
2020-Jan-16 16:08 200 5 gusting 8 13.3
2020-Jan-16 15:59 206 5 gusting 10 13.3
2020-Jan-16 15:50 201 6 gusting 13 13.3
2020-Jan-16 15:41 204 3 gusting 11 13.3
2020-Jan-16 15:32 207 4 gusting 6 13.9
2020-Jan-16 15:23 201 4 gusting 10 13.3
2020-Jan-16 15:14 199 5 gusting 10 13.9
2020-Jan-16 15:05 192 6 gusting 10 13.9
2020-Jan-16 14:56 202 6 gusting 11 13.9
2020-Jan-16 14:47 197 6 gusting 9 13.9
2020-Jan-16 14:38 198 6 gusting 11 13.9
2020-Jan-16 14:29 187 5 gusting 10 14.4
2020-Jan-16 14:20 204 6 gusting 9 15.0
2020-Jan-16 14:11 201 6 gusting 10 14.4
2020-Jan-16 14:02 191 5 gusting 12 14.4